Location: Newark
(44.9333°N, 0.5667°E)
Time: 01:14:24
(UTC+00:00)

UWE-3 - Pass Details

Date: 18 February 2020
Orbit: 585 x 682 km, 97.6° (Epoch: 27 March)

Event Time Altitude Azimuth Distance (km) Brightness Sun altitude
Rises 04:06:08 0° 33° (NNE) 3,021 ? -30.4°
Reaches altitude 10° 04:09:43 10° 63° (ENE) 2,115 ? -29.8°
Maximum altitude 04:11:42 13° 88° (E) 1,947 ? -29.4°
Drops below altitude 10° 04:13:42 10° 114° (ESE) 2,120 ? -29.1°
Sets 04:17:17 0° 143° (SE) 3,032 ? -28.5°
